Tracking 19485 objects as of 21-Jan-2019
HD Live streaming from Space Station
objects crossing your sky now

DIDO 2

Track DIDO 2 now!
10-day predictions


NORAD ID: 42000
Int'l Code: 2017-008BE
Perigee: 496.7 km
Apogee: 507.4 km
Inclination: 97.4 °
Period: 94.5 minutes
Semi major axis: 6873 km
RCS: Unknown
Launch date: February 15, 2017
Source: Israel (ISRA)
Launch site: SRIHARIKOTA (SRI)
aabbcc
Your satellite tracking list
Your tracking list is empty




NASA's NSSDC Master Catalog

Two Line Element Set (TLE):
1 42000U 17008BE  19020.87462542 +.00000652 +00000-0 +30175-4 0  9995
2 42000 097.4217 088.2678 0007772 338.1180 021.9724 15.23613840106548
Source of the keplerian elements: AFSPC